Regional Weather Roundup
Issued by NWS

Home | Current Version | Previous Version | Text Only | Print | Product List | Glossary On
Versions: 1 2 3 4 5 6 7 8 9 10 11 12 13 14 15 16 17 18 19 20 21 22 23 24 25 26 27 28 29 30 31 32 33 34 35 36 37 38 39 40 41 42 43 44 45 46 47 48 49 50
000
ASUS45 KSLC 070610
RWRUT

UTAH REGIONAL WEATHER ROUNDUP
NATIONAL WEATHER SERVICE SALT LAKE CITY UT
1100 PM MST SAT FEB 06 2016

UTZ001>011-023>025-070700-

NORTHERN UTAH

CITY           SKY/WX    TMP DP  RH WIND       PRES   REMARKS
BRIGHAM CITY   CLOUDY    20  18  91 CALM      30.50R
HILL AFB       CLOUDY    28  14  57 SE9       30.47R WCI  19
LOGAN          CLOUDY    23  20  88 CALM      30.47S FOG
OGDEN          MOCLDY    27  22  81 S5        30.47R WCI  22
PROVO AIRPORT  PTCLDY    14  10  85 W5        30.49R WCI   6
SALT LAKE CITY MOCLDY    28  21  75 SE3       30.49R
VERNAL         CLOUDY    10   6  84 NW5       30.48R WCI   2
WENDOVER       CLEAR     27  21  80 CALM      30.49R
HEBER CITY     PTCLDY    14  12  92 CALM      30.46S
WEST JORDAN    CLEAR     27  21  80 SW5       30.49R WCI  21

$$

UTZ012>022-026-027-070700-

SOUTHERN/CENTRAL UTAH

CITY           SKY/WX    TMP DP  RH WIND       PRES   REMARKS
BLANDING       PTCLDY    20  15  80 NW5       30.49S WCI  14
BRYCE CANYON   PTCLDY    14   7  73 W12       30.45R WCI   0
CEDAR CITY     PTCLDY    14  10  84 NE3       30.42R
DELTA            N/A      9   7  92 CALM      30.49R VSB 1/4
HANKSVILLE     CLOUDY    18  16  93 CALM      30.55F
MILFORD        MOCLDY     2  -2  83 S10       30.46F WCI -14
MOAB/CYNLANDS  FOG       11  10  96 CALM      30.51F VSB 1/4
PRICE          PTCLDY    11   6  81 CALM      30.44S
ST GEORGE      PTCLDY    43  23  45 E5        30.41S
KANAB          CLEAR     32  27  80 NE5       30.46S WCI  27

$$

REGIONAL REPORTS     COLORADO/ARIZONA

CITY           SKY/WX    TMP DP  RH WIND       PRES   REMARKS
CRAIG, CO      CLOUDY     8   4  83 CALM      30.41R
GRAND JUNCTION CLOUDY    12  10  92 SE6       30.50S WCI   3
RIFLE          CLOUDY    14   7  73 CALM      30.47S
MONTROSE       CLOUDY    13   7  77 S6        30.48S WCI   4
CORTEZ         CLOUDY    15  11  83 E10       30.42F WCI   2
PAGE, AZ       CLEAR     30  22  72 SE5       30.46S WCI  25
GRAND CANYON   CLEAR     23  15  71 CALM      30.42S
KINGMAN        CLEAR     37  24  59 E5        30.33S WCI  33
FLAGSTAFF      CLEAR     19  14  81 CALM      30.40R

$$

REGIONAL REPORTS    NEVADA/IDAHO/WYOMING

CITY           SKY/WX    TMP DP  RH WIND       PRES   REMARKS
LAS VEGAS, NV  CLEAR     48  27  44 W7        30.31S
ELY            PTCLDY    10   4  76 S18       30.46R WCI  -8
ELKO           CLEAR     12   9  87 CALM      30.51R
POCATELLO, ID  CLOUDY    32  26  78 SW10      30.42R WCI  24
BURLEY         MOCLDY    37  28  70 W10       30.41R WCI  30
EVANSTON, WY   CLOUDY    25  14  63 SW15      30.40F WCI  13
ROCK SPRINGS   CLOUDY    27  16  63 W23G32    30.30F WCI  12

$$



USA.gov is the U.S. government's official web portal to all federal, state and local government web resources and services.